Time,TemperatureF,DewpointF,PressureIn,WindDirection,WindDirectionDegrees,WindSpeedMPH,WindSpeedGustMPH,Humidity,HourlyPrecipIn,Conditions,Clouds,dailyrainin,SoftwareType,DateUTC
2013-08-06 00:02:00,65.1,52.6,29.81,West,273,0.0,1.0,64,0.00,,---,0.00,VWS V13.00,2013-08-06 07:02:00,
2013-08-06 00:07:00,64.9,52.9,29.81,West,273,0.0,2.0,65,0.00,,---,0.00,VWS V13.00,2013-08-06 07:07:00,
2013-08-06 00:11:00,64.7,52.7,29.81,West,273,0.0,2.0,65,0.00,,---,0.00,VWS V13.00,2013-08-06 07:11:00,
2013-08-06 00:16:00,64.4,52.8,29.81,West,273,0.0,2.0,66,0.00,,---,0.00,VWS V13.00,2013-08-06 07:16:00,
2013-08-06 00:21:00,64.0,52.8,29.81,West,273,0.0,2.0,67,0.00,,---,0.00,VWS V13.00,2013-08-06 07:21:00,
2013-08-06 00:26:00,63.8,52.7,29.81,West,273,1.0,2.0,67,0.00,,---,0.00,VWS V13.00,2013-08-06 07:26:00,
2013-08-06 00:31:00,63.5,52.4,29.81,West,273,1.0,2.0,67,0.00,,---,0.00,VWS V13.00,2013-08-06 07:31:00,
2013-08-06 00:36:00,63.2,52.5,29.82,West,273,0.0,2.0,68,0.00,,---,0.00,VWS V13.00,2013-08-06 07:36:00,
2013-08-06 00:41:00,62.9,52.2,29.82,West,273,1.0,2.0,68,0.00,,---,0.00,VWS V13.00,2013-08-06 07:41:00,
2013-08-06 00:46:00,62.6,51.9,29.82,West,273,1.0,2.0,68,0.00,,---,0.00,VWS V13.00,2013-08-06 07:46:00,
2013-08-06 00:51:00,62.5,52.2,29.82,West,273,1.0,3.0,69,0.00,,---,0.00,VWS V13.00,2013-08-06 07:51:00,
2013-08-06 00:56:00,62.4,52.1,29.82,West,273,0.0,3.0,69,0.00,,---,0.00,VWS V13.00,2013-08-06 07:56:00,
2013-08-06 01:01:00,62.2,52.3,29.81,West,273,0.0,2.0,70,0.00,,---,0.00,VWS V13.00,2013-08-06 08:01:00,
2013-08-06 01:06:00,62.1,52.2,29.81,West,273,0.0,2.0,70,0.00,,---,0.00,VWS V13.00,2013-08-06 08:06:00,
2013-08-06 01:11:00,61.9,52.4,29.81,West,273,0.0,2.0,71,0.00,,---,0.00,VWS V13.00,2013-08-06 08:11:00,
2013-08-06 01:16:00,61.7,52.2,29.81,West,273,0.0,2.0,71,0.00,,---,0.00,VWS V13.00,2013-08-06 08:16:00,
2013-08-06 01:21:00,61.5,52.4,29.81,West,273,0.0,2.0,72,0.00,,---,0.00,VWS V13.00,2013-08-06 08:21:00,
2013-08-06 01:26:00,61.4,52.3,29.82,West,273,1.0,2.0,72,0.00,,---,0.00,VWS V13.00,2013-08-06 08:26:00,
2013-08-06 01:31:00,61.2,52.1,29.82,West,273,0.0,0.0,72,0.00,,---,0.00,VWS V13.00,2013-08-06 08:31:00,
2013-08-06 01:36:00,61.0,52.3,29.82,West,273,0.0,0.0,73,0.00,,---,0.00,VWS V13.00,2013-08-06 08:36:00,
2013-08-06 01:41:00,60.8,52.5,29.82,West,273,0.0,2.0,74,0.00,,---,0.00,VWS V13.00,2013-08-06 08:41:00,
2013-08-06 01:46:00,60.7,52.7,29.82,West,273,0.0,2.0,75,0.00,,---,0.00,VWS V13.00,2013-08-06 08:46:00,
2013-08-06 01:51:00,60.5,52.5,29.82,West,273,0.0,2.0,75,0.00,,---,0.00,VWS V13.00,2013-08-06 08:51:00,
2013-08-06 01:56:00,60.3,52.3,29.82,West,273,0.0,2.0,75,0.00,,---,0.00,VWS V13.00,2013-08-06 08:56:00,
2013-08-06 02:01:00,60.2,52.3,29.81,West,273,0.0,0.0,75,0.00,,---,0.00,VWS V13.00,2013-08-06 09:01:00,
2013-08-06 02:06:00,60.0,52.4,29.82,West,273,2.0,3.0,76,0.00,,---,0.00,VWS V13.00,2013-08-06 09:06:00,
2013-08-06 02:11:00,59.8,52.6,29.82,West,273,0.0,3.0,77,0.00,,---,0.00,VWS V13.00,2013-08-06 09:11:00,
2013-08-06 02:16:00,59.6,52.4,29.82,West,273,0.0,3.0,77,0.00,,---,0.00,VWS V13.00,2013-08-06 09:16:00,
2013-08-06 02:21:00,59.3,52.1,29.82,West,273,1.0,3.0,77,0.00,,---,0.00,VWS V13.00,2013-08-06 09:21:00,
2013-08-06 02:26:00,59.1,52.3,29.82,West,273,1.0,3.0,78,0.00,,---,0.00,VWS V13.00,2013-08-06 09:26:00,
2013-08-06 02:31:00,59.0,51.8,29.82,West,273,1.0,3.0,77,0.00,,---,0.00,VWS V13.00,2013-08-06 09:31:00,
2013-08-06 02:36:00,59.0,51.8,29.82,West,273,1.0,3.0,77,0.00,,---,0.00,VWS V13.00,2013-08-06 09:36:00,
2013-08-06 02:41:00,58.7,51.9,29.82,West,273,2.0,3.0,78,0.00,,---,0.00,VWS V13.00,2013-08-06 09:41:00,
2013-08-06 02:46:00,58.4,51.9,29.82,West,273,2.0,4.0,79,0.00,,---,0.00,VWS V13.00,2013-08-06 09:46:00,
2013-08-06 02:51:00,58.3,52.2,29.82,West,273,1.0,4.0,80,0.00,,---,0.00,VWS V13.00,2013-08-06 09:51:00,
2013-08-06 02:56:00,58.2,52.1,29.82,West,273,3.0,4.0,80,0.00,,---,0.00,VWS V13.00,2013-08-06 09:56:00,
2013-08-06 03:01:00,58.0,51.9,29.83,West,273,0.0,2.0,80,0.00,,---,0.00,VWS V13.00,2013-08-06 10:01:00,
2013-08-06 03:06:00,57.9,51.4,29.83,West,273,0.0,2.0,79,0.00,,---,0.00,VWS V13.00,2013-08-06 10:06:00,
2013-08-06 03:11:00,57.8,51.3,29.83,West,273,0.0,2.0,79,0.00,,---,0.00,VWS V13.00,2013-08-06 10:11:00,
2013-08-06 03:16:00,57.6,50.8,29.83,West,273,2.0,2.0,78,0.00,,---,0.00,VWS V13.00,2013-08-06 10:16:00,
2013-08-06 03:21:00,57.4,51.0,29.83,West,273,1.0,2.0,79,0.00,,---,0.00,VWS V13.00,2013-08-06 10:21:00,
2013-08-06 03:26:00,57.2,51.1,29.84,West,273,0.0,2.0,80,0.00,,---,0.00,VWS V13.00,2013-08-06 10:26:00,
2013-08-06 03:31:00,57.1,51.0,29.84,West,273,0.0,0.0,80,0.00,,---,0.00,VWS V13.00,2013-08-06 10:31:00,
2013-08-06 03:36:00,57.1,51.0,29.84,West,273,0.0,0.0,80,0.00,,---,0.00,VWS V13.00,2013-08-06 10:36:00,
2013-08-06 03:41:00,57.0,50.9,29.84,West,273,0.0,0.0,80,0.00,,---,0.00,VWS V13.00,2013-08-06 10:41:00,
2013-08-06 03:46:00,56.9,51.1,29.84,West,273,0.0,1.0,81,0.00,,---,0.00,VWS V13.00,2013-08-06 10:46:00,
2013-08-06 03:51:00,57.0,51.6,29.84,West,273,0.0,1.0,82,0.00,,---,0.00,VWS V13.00,2013-08-06 10:51:00,
2013-08-06 03:56:00,56.9,51.5,29.84,West,273,0.0,1.0,82,0.00,,---,0.00,VWS V13.00,2013-08-06 10:56:00,
2013-08-06 04:01:00,56.8,51.4,29.84,West,273,0.0,0.0,82,0.00,,---,0.00,VWS V13.00,2013-08-06 11:01:00,
2013-08-06 04:06:00,56.7,50.9,29.84,West,273,0.0,2.0,81,0.00,,---,0.00,VWS V13.00,2013-08-06 11:06:00,
2013-08-06 04:11:00,56.6,51.2,29.84,West,273,0.0,2.0,82,0.00,,---,0.00,VWS V13.00,2013-08-06 11:11:00,
2013-08-06 04:16:00,56.4,51.0,29.84,West,273,0.0,2.0,82,0.00,,---,0.00,VWS V13.00,2013-08-06 11:16:00,
2013-08-06 04:21:00,56.3,50.9,29.84,West,273,0.0,2.0,82,0.00,,---,0.00,VWS V13.00,2013-08-06 11:21:00,
2013-08-06 04:26:00,56.2,50.8,29.85,West,273,0.0,2.0,82,0.00,,---,0.00,VWS V13.00,2013-08-06 11:26:00,
2013-08-06 04:31:00,56.0,50.3,29.85,West,273,0.0,0.0,81,0.00,,---,0.00,VWS V13.00,2013-08-06 11:31:00,
2013-08-06 04:36:00,55.9,50.5,29.85,West,273,0.0,1.0,82,0.00,,---,0.00,VWS V13.00,2013-08-06 11:36:00,
2013-08-06 04:41:00,55.7,50.6,29.85,West,273,0.0,2.0,83,0.00,,---,0.00,VWS V13.00,2013-08-06 11:41:00,
2013-08-06 04:46:00,55.5,50.4,29.85,West,273,2.0,2.0,83,0.00,,---,0.00,VWS V13.00,2013-08-06 11:46:00,
2013-08-06 04:51:00,55.4,50.3,29.85,West,273,0.0,2.0,83,0.00,,---,0.00,VWS V13.00,2013-08-06 11:51:00,
2013-08-06 04:56:00,55.2,50.5,29.85,West,273,1.0,2.0,84,0.00,,---,0.00,VWS V13.00,2013-08-06 11:56:00,
2013-08-06 05:01:00,55.0,50.3,29.86,West,273,2.0,2.0,84,0.00,,---,0.00,VWS V13.00,2013-08-06 12:01:00,
2013-08-06 05:06:00,54.9,50.2,29.86,West,273,1.0,2.0,84,0.00,,---,0.00,VWS V13.00,2013-08-06 12:06:00,
2013-08-06 05:11:00,54.9,50.5,29.86,West,273,0.0,2.0,85,0.00,,---,0.00,VWS V13.00,2013-08-06 12:11:00,
2013-08-06 05:16:00,54.8,50.4,29.86,West,273,0.0,2.0,85,0.00,,---,0.00,VWS V13.00,2013-08-06 12:16:00,
2013-08-06 05:21:00,54.7,50.3,29.86,West,273,0.0,2.0,85,0.00,,---,0.00,VWS V13.00,2013-08-06 12:21:00,
2013-08-06 05:26:00,54.6,50.2,29.86,West,273,1.0,2.0,85,0.00,,---,0.00,VWS V13.00,2013-08-06 12:26:00,
2013-08-06 05:31:00,54.6,50.2,29.86,West,273,2.0,3.0,85,0.00,,---,0.00,VWS V13.00,2013-08-06 12:31:00,
2013-08-06 05:36:00,54.5,50.1,29.86,West,273,1.0,3.0,85,0.00,,---,0.00,VWS V13.00,2013-08-06 12:36:00,
2013-08-06 05:41:00,54.4,50.0,29.86,West,273,2.0,3.0,85,0.00,,---,0.00,VWS V13.00,2013-08-06 12:41:00,
2013-08-06 05:46:00,54.3,49.9,29.86,West,273,0.0,3.0,85,0.00,,---,0.00,VWS V13.00,2013-08-06 12:46:00,
2013-08-06 05:51:00,54.2,50.1,29.87,West,273,0.0,3.0,86,0.00,,---,0.00,VWS V13.00,2013-08-06 12:51:00,
2013-08-06 05:56:00,54.2,50.1,29.87,West,273,0.0,3.0,86,0.00,,---,0.00,VWS V13.00,2013-08-06 12:56:00,
2013-08-06 06:01:00,54.2,50.1,29.86,West,273,0.0,0.0,86,0.00,,---,0.00,VWS V13.00,2013-08-06 13:01:00,
2013-08-06 06:06:00,54.2,50.1,29.86,West,273,0.0,0.0,86,0.00,,---,0.00,VWS V13.00,2013-08-06 13:06:00,
2013-08-06 06:11:00,54.2,50.1,29.87,West,273,0.0,2.0,86,0.00,,---,0.00,VWS V13.00,2013-08-06 13:11:00,
2013-08-06 06:16:00,54.3,50.2,29.87,West,273,0.0,2.0,86,0.00,,---,0.00,VWS V13.00,2013-08-06 13:16:00,
2013-08-06 06:21:00,54.4,50.6,29.87,West,273,0.0,2.0,87,0.00,,---,0.00,VWS V13.00,2013-08-06 13:21:00,
2013-08-06 06:26:00,54.5,50.7,29.86,West,273,0.0,2.0,87,0.00,,---,0.00,VWS V13.00,2013-08-06 13:26:00,
2013-08-06 06:31:00,54.6,50.8,29.87,West,273,0.0,0.0,87,0.00,,---,0.00,VWS V13.00,2013-08-06 13:31:00,
2013-08-06 06:36:00,54.8,51.0,29.87,West,273,0.0,0.0,87,0.00,,---,0.00,VWS V13.00,2013-08-06 13:36:00,
2013-08-06 06:41:00,55.0,51.5,29.87,West,273,0.0,0.0,88,0.00,,---,0.00,VWS V13.00,2013-08-06 13:41:00,
2013-08-06 06:46:00,55.4,51.9,29.87,West,273,0.0,0.0,88,0.00,,---,0.00,VWS V13.00,2013-08-06 13:46:00,
2013-08-06 06:51:00,55.7,52.2,29.88,West,273,0.0,1.0,88,0.00,,---,0.00,VWS V13.00,2013-08-06 13:51:00,
2013-08-06 06:56:00,56.0,52.8,29.87,West,273,0.0,1.0,89,0.00,,---,0.00,VWS V13.00,2013-08-06 13:56:00,
2013-08-06 07:01:00,56.2,52.7,29.88,West,273,0.0,1.0,88,0.00,,---,0.00,VWS V13.00,2013-08-06 14:01:00,
2013-08-06 07:06:00,56.5,53.0,29.88,West,273,0.0,1.0,88,0.00,,---,0.00,VWS V13.00,2013-08-06 14:06:00,
2013-08-06 07:11:00,56.7,53.2,29.88,West,273,0.0,1.0,88,0.00,,---,0.00,VWS V13.00,2013-08-06 14:11:00,
2013-08-06 07:16:00,56.9,53.4,29.88,West,273,0.0,1.0,88,0.00,,---,0.00,VWS V13.00,2013-08-06 14:16:00,
2013-08-06 07:21:00,57.1,53.6,29.88,West,273,0.0,1.0,88,0.00,,---,0.00,VWS V13.00,2013-08-06 14:21:00,
2013-08-06 07:26:00,57.3,53.8,29.88,West,273,0.0,1.0,88,0.00,,---,0.00,VWS V13.00,2013-08-06 14:26:00,
2013-08-06 07:31:00,57.5,53.7,29.88,West,273,0.0,0.0,87,0.00,,---,0.00,VWS V13.00,2013-08-06 14:31:00,
2013-08-06 07:36:00,57.7,53.9,29.88,West,273,0.0,0.0,87,0.00,,---,0.00,VWS V13.00,2013-08-06 14:36:00,
2013-08-06 07:41:00,57.9,54.1,29.88,West,273,0.0,0.0,87,0.00,,---,0.00,VWS V13.00,2013-08-06 14:41:00,
2013-08-06 07:46:00,58.1,53.9,29.88,West,273,0.0,0.0,86,0.00,,---,0.00,VWS V13.00,2013-08-06 14:46:00,
2013-08-06 07:51:00,58.3,54.1,29.89,West,273,0.0,0.0,86,0.00,,---,0.00,VWS V13.00,2013-08-06 14:51:00,
2013-08-06 07:56:00,58.6,54.4,29.88,West,273,0.0,2.0,86,0.00,,---,0.00,VWS V13.00,2013-08-06 14:56:00,
2013-08-06 08:01:00,59.0,54.8,29.90,West,273,1.0,1.0,86,0.00,,---,0.00,VWS V13.00,2013-08-06 15:01:00,
2013-08-06 08:06:00,59.4,54.9,29.90,WNW,290,3.0,5.0,85,0.00,,---,0.00,VWS V13.00,2013-08-06 15:06:00,
2013-08-06 08:11:00,60.2,55.0,29.89,NNW,329,2.0,5.0,83,0.00,,---,0.00,VWS V13.00,2013-08-06 15:11:00,
2013-08-06 08:16:00,61.1,55.6,29.89,NW,320,2.0,5.0,82,0.00,,---,0.00,VWS V13.00,2013-08-06 15:16:00,
2013-08-06 08:21:00,62.0,55.8,29.89,NW,318,2.0,5.0,80,0.00,,---,0.00,VWS V13.00,2013-08-06 15:21:00,
2013-08-06 08:26:00,62.7,55.8,29.89,NW,318,0.0,5.0,78,0.00,,---,0.00,VWS V13.00,2013-08-06 15:26:00,
2013-08-06 08:31:00,63.2,55.9,29.89,NW,319,1.0,3.0,77,0.00,,---,0.00,VWS V13.00,2013-08-06 15:31:00,
2013-08-06 08:36:00,63.6,57.0,29.89,NW,319,0.0,3.0,79,0.00,,---,0.00,VWS V13.00,2013-08-06 15:36:00,
2013-08-06 08:41:00,63.9,57.3,29.89,NW,319,0.0,3.0,79,0.00,,---,0.00,VWS V13.00,2013-08-06 15:41:00,
2013-08-06 08:46:00,64.1,57.5,29.89,NW,319,0.0,3.0,79,0.00,,---,0.00,VWS V13.00,2013-08-06 15:46:00,
2013-08-06 08:51:00,64.3,56.2,29.89,NW,318,0.0,3.0,75,0.00,,---,0.00,VWS V13.00,2013-08-06 15:51:00,
2013-08-06 08:56:00,64.5,56.4,29.89,NW,319,3.0,3.0,75,0.00,,---,0.00,VWS V13.00,2013-08-06 15:56:00,
2013-08-06 09:01:00,64.9,56.4,29.90,NW,319,0.0,2.0,74,0.00,,---,0.00,VWS V13.00,2013-08-06 16:01:00,
2013-08-06 09:06:00,65.2,56.3,29.90,NW,319,0.0,3.0,73,0.00,,---,0.00,VWS V13.00,2013-08-06 16:06:00,
2013-08-06 09:11:00,65.6,57.1,29.89,NW,319,0.0,3.0,74,0.00,,---,0.00,VWS V13.00,2013-08-06 16:11:00,
2013-08-06 09:16:00,65.9,57.0,29.90,NW,318,0.0,3.0,73,0.00,,---,0.00,VWS V13.00,2013-08-06 16:16:00,
2013-08-06 09:21:00,66.1,56.8,29.90,NW,319,0.0,3.0,72,0.00,,---,0.00,VWS V13.00,2013-08-06 16:21:00,
2013-08-06 09:26:00,66.4,57.5,29.90,NW,319,0.0,3.0,73,0.00,,---,0.00,VWS V13.00,2013-08-06 16:26:00,
2013-08-06 09:31:00,66.8,57.9,29.90,NW,318,0.0,0.0,73,0.00,,---,0.00,VWS V13.00,2013-08-06 16:31:00,
2013-08-06 09:36:00,67.2,58.6,29.90,NW,319,0.0,1.0,74,0.00,,---,0.00,VWS V13.00,2013-08-06 16:36:00,
2013-08-06 09:41:00,67.7,58.7,29.89,NW,319,0.0,1.0,73,0.00,,---,0.00,VWS V13.00,2013-08-06 16:41:00,
2013-08-06 09:46:00,68.1,58.7,29.89,NW,319,2.0,4.0,72,0.00,,---,0.00,VWS V13.00,2013-08-06 16:46:00,
2013-08-06 09:51:00,68.7,57.7,29.89,NW,319,0.0,4.0,68,0.00,,---,0.00,VWS V13.00,2013-08-06 16:51:00,
2013-08-06 09:56:00,69.3,59.5,29.89,NW,319,2.0,4.0,71,0.00,,---,0.00,VWS V13.00,2013-08-06 16:56:00,
2013-08-06 10:01:00,69.7,57.8,29.89,NW,318,0.0,3.0,66,0.00,,---,0.00,VWS V13.00,2013-08-06 17:01:00,
2013-08-06 10:06:00,70.2,60.0,29.89,NW,318,0.0,3.0,70,0.00,,---,0.00,VWS V13.00,2013-08-06 17:06:00,
2013-08-06 10:11:00,70.6,59.1,29.89,NW,318,2.0,4.0,67,0.00,,---,0.00,VWS V13.00,2013-08-06 17:11:00,
2013-08-06 10:16:00,70.8,57.6,29.89,NE,39,0.0,4.0,63,0.00,,---,0.00,VWS V13.00,2013-08-06 17:16:00,
2013-08-06 10:21:00,71.1,58.3,29.89,SE,126,0.0,5.0,64,0.00,,---,0.00,VWS V13.00,2013-08-06 17:21:00,
2013-08-06 10:26:00,71.6,58.8,29.89,SE,125,2.0,5.0,64,0.00,,---,0.00,VWS V13.00,2013-08-06 17:26:00,
2013-08-06 10:27:00,71.6,58.3,29.88,SE,126,0.0,5.0,63,0.00,,---,0.00,VWS V13.00,2013-08-06 17:27:00,
2013-08-06 10:32:00,72.1,57.9,29.88,SE,125,0.0,0.0,61,0.00,,---,0.00,VWS V13.00,2013-08-06 17:32:00,
2013-08-06 10:37:00,72.2,57.6,29.88,SE,126,0.0,0.0,60,0.00,,---,0.00,VWS V13.00,2013-08-06 17:37:00,
2013-08-06 10:42:00,72.6,59.3,29.88,SSE,154,0.0,5.0,63,0.00,,---,0.00,VWS V13.00,2013-08-06 17:42:00,
2013-08-06 10:47:00,73.3,59.5,29.88,SSE,154,0.0,5.0,62,0.00,,---,0.00,VWS V13.00,2013-08-06 17:47:00,
2013-08-06 10:52:00,73.9,59.6,29.88,SSE,154,0.0,5.0,61,0.00,,---,0.00,VWS V13.00,2013-08-06 17:52:00,
2013-08-06 10:57:00,74.2,58.5,29.88,SSE,155,4.0,5.0,58,0.00,,---,0.00,VWS V13.00,2013-08-06 17:57:00,
2013-08-06 11:02:00,74.6,58.9,29.88,SSE,157,4.0,5.0,58,0.00,,---,0.00,VWS V13.00,2013-08-06 18:02:00,
2013-08-06 11:07:00,75.1,58.3,29.88,SSE,165,0.0,5.0,56,0.00,,---,0.00,VWS V13.00,2013-08-06 18:07:00,
2013-08-06 11:12:00,75.5,59.2,29.88,SSE,148,0.0,6.0,57,0.00,,---,0.00,VWS V13.00,2013-08-06 18:12:00,
2013-08-06 11:17:00,75.9,60.6,29.88,SSE,148,0.0,6.0,59,0.00,,---,0.00,VWS V13.00,2013-08-06 18:17:00,
2013-08-06 11:22:00,76.4,58.0,29.88,SSE,148,0.0,6.0,53,0.00,,---,0.00,VWS V13.00,2013-08-06 18:22:00,
2013-08-06 11:27:00,76.9,58.5,29.88,SSE,148,3.0,6.0,53,0.00,,---,0.00,VWS V13.00,2013-08-06 18:27:00,
2013-08-06 11:32:00,77.3,60.9,29.87,SSE,148,0.0,2.0,57,0.00,,---,0.00,VWS V13.00,2013-08-06 18:32:00,
2013-08-06 11:37:00,77.8,61.9,29.88,SSE,148,0.0,2.0,58,0.00,,---,0.00,VWS V13.00,2013-08-06 18:37:00,
2013-08-06 11:42:00,78.2,59.2,29.88,SSE,148,0.0,2.0,52,0.00,,---,0.00,VWS V13.00,2013-08-06 18:42:00,
2013-08-06 11:47:00,78.4,58.2,29.87,SSE,148,2.0,3.0,50,0.00,,---,0.00,VWS V13.00,2013-08-06 18:47:00,
2013-08-06 11:52:00,78.7,58.0,29.87,WNW,289,0.0,4.0,49,0.00,,---,0.00,VWS V13.00,2013-08-06 18:52:00,
2013-08-06 11:57:00,79.1,58.3,29.87,SE,142,3.0,6.0,49,0.00,,---,0.00,VWS V13.00,2013-08-06 18:57:00,
2013-08-06 12:02:00,79.6,57.6,29.87,SSE,163,3.0,4.0,47,0.00,,---,0.00,VWS V13.00,2013-08-06 19:02:00,
2013-08-06 12:07:00,80.3,58.8,29.87,SSE,163,0.0,4.0,48,0.00,,---,0.00,VWS V13.00,2013-08-06 19:07:00,
2013-08-06 12:12:00,80.6,57.3,29.87,SSE,163,0.0,4.0,45,0.00,,---,0.00,VWS V13.00,2013-08-06 19:12:00,
2013-08-06 12:17:00,81.0,60.1,29.87,SSE,163,0.0,4.0,49,0.00,,---,0.00,VWS V13.00,2013-08-06 19:17:00,
2013-08-06 12:22:00,81.7,61.8,29.86,SSE,161,1.0,4.0,51,0.00,,---,0.00,VWS V13.00,2013-08-06 19:22:00,
2013-08-06 12:27:00,82.3,59.5,29.86,SSE,160,3.0,4.0,46,0.00,,---,0.00,VWS V13.00,2013-08-06 19:27:00,
2013-08-06 12:32:00,83.0,59.5,29.86,SSE,160,0.0,1.0,45,0.00,,---,0.00,VWS V13.00,2013-08-06 19:32:00,
2013-08-06 12:37:00,83.5,58.7,29.85,SE,124,0.0,4.0,43,0.00,,---,0.00,VWS V13.00,2013-08-06 19:37:00,
2013-08-06 12:42:00,84.2,59.3,29.85,SSE,168,3.0,5.0,43,0.00,,---,0.00,VWS V13.00,2013-08-06 19:42:00,
2013-08-06 12:47:00,84.6,58.3,29.85,SSE,163,4.0,7.0,41,0.00,,---,0.00,VWS V13.00,2013-08-06 19:47:00,
2013-08-06 12:52:00,85.1,59.5,29.85,ESE,121,1.0,7.0,42,0.00,,---,0.00,VWS V13.00,2013-08-06 19:52:00,
2013-08-06 12:57:00,85.3,56.1,29.85,North,10,3.0,7.0,37,0.00,,---,0.00,VWS V13.00,2013-08-06 19:57:00,
2013-08-06 13:02:00,85.6,57.1,29.84,SSE,160,1.0,6.0,38,0.00,,---,0.00,VWS V13.00,2013-08-06 20:02:00,
2013-08-06 13:07:00,86.1,56.0,29.85,SE,138,2.0,6.0,36,0.00,,---,0.00,VWS V13.00,2013-08-06 20:07:00,
2013-08-06 13:12:00,86.4,56.3,29.85,SSE,150,3.0,8.0,36,0.00,,---,0.00,VWS V13.00,2013-08-06 20:12:00,
2013-08-06 13:17:00,86.5,53.2,29.85,SSE,150,0.0,8.0,32,0.00,,---,0.00,VWS V13.00,2013-08-06 20:17:00,
2013-08-06 13:22:00,86.7,53.3,29.84,SSE,150,1.0,8.0,32,0.00,,---,0.00,VWS V13.00,2013-08-06 20:22:00,
2013-08-06 13:27:00,86.9,54.4,29.84,SE,133,4.0,8.0,33,0.00,,---,0.00,VWS V13.00,2013-08-06 20:27:00,
2013-08-06 13:32:00,86.8,54.3,29.84,SE,125,3.0,5.0,33,0.00,,---,0.00,VWS V13.00,2013-08-06 20:32:00,
2013-08-06 13:37:00,86.8,53.4,29.84,SE,125,0.0,5.0,32,0.00,,---,0.00,VWS V13.00,2013-08-06 20:37:00,
2013-08-06 13:42:00,86.9,55.2,29.84,SE,125,2.0,5.0,34,0.00,,---,0.00,VWS V13.00,2013-08-06 20:42:00,
2013-08-06 13:47:00,86.9,55.2,29.84,SE,126,0.0,5.0,34,0.00,,---,0.00,VWS V13.00,2013-08-06 20:47:00,
2013-08-06 13:52:00,86.9,55.2,29.84,SE,127,1.0,5.0,34,0.00,,---,0.00,VWS V13.00,2013-08-06 20:52:00,
2013-08-06 13:57:00,87.0,55.3,29.83,SE,132,2.0,5.0,34,0.00,,---,0.00,VWS V13.00,2013-08-06 20:57:00,
2013-08-06 14:02:00,87.0,52.7,29.84,NNE,22,2.0,3.0,31,0.00,,---,0.00,VWS V13.00,2013-08-06 21:02:00,
2013-08-06 14:07:00,87.1,56.2,29.83,NNE,15,0.0,3.0,35,0.00,,---,0.00,VWS V13.00,2013-08-06 21:07:00,
2013-08-06 14:12:00,87.8,56.0,29.83,SE,128,4.0,4.0,34,0.00,,---,0.00,VWS V13.00,2013-08-06 21:12:00,
2013-08-06 14:17:00,88.6,55.0,29.83,ESE,123,0.0,5.0,32,0.00,,---,0.00,VWS V13.00,2013-08-06 21:17:00,
2013-08-06 14:22:00,89.1,60.9,29.82,NNE,26,0.0,5.0,39,0.00,,---,0.00,VWS V13.00,2013-08-06 21:22:00,
2013-08-06 14:27:00,89.6,55.0,29.82,NNE,14,0.0,5.0,31,0.00,,---,0.00,VWS V13.00,2013-08-06 21:27:00,
2013-08-06 14:32:00,89.6,53.2,29.82,NNE,14,0.0,4.0,29,0.00,,---,0.00,VWS V13.00,2013-08-06 21:32:00,
2013-08-06 14:37:00,89.4,55.7,29.82,SSE,161,0.0,5.0,32,0.00,,---,0.00,VWS V13.00,2013-08-06 21:37:00,
2013-08-06 14:42:00,89.1,55.4,29.82,SE,144,2.0,5.0,32,0.00,,---,0.00,VWS V13.00,2013-08-06 21:42:00,
2013-08-06 14:47:00,88.7,55.1,29.82,SE,144,0.0,5.0,32,0.00,,---,0.00,VWS V13.00,2013-08-06 21:47:00,
2013-08-06 14:52:00,88.5,56.6,29.82,SE,144,0.0,5.0,34,0.00,,---,0.00,VWS V13.00,2013-08-06 21:52:00,
2013-08-06 14:57:00,88.4,55.7,29.82,SE,140,1.0,5.0,33,0.00,,---,0.00,VWS V13.00,2013-08-06 21:57:00,
2013-08-06 15:01:00,88.5,57.4,29.82,SSE,149,3.0,3.0,35,0.00,,---,0.00,VWS V13.00,2013-08-06 22:01:00,
2013-08-06 15:06:00,88.9,60.8,29.81,SSE,150,0.0,3.0,39,0.00,,---,0.00,VWS V13.00,2013-08-06 22:06:00,
2013-08-06 15:11:00,89.5,56.6,29.81,SE,137,2.0,5.0,33,0.00,,---,0.00,VWS V13.00,2013-08-06 22:11:00,
2013-08-06 15:16:00,89.9,57.0,29.82,ESE,105,0.0,5.0,33,0.00,,---,0.00,VWS V13.00,2013-08-06 22:16:00,
2013-08-06 15:21:00,90.1,55.4,29.81,NE,45,1.0,5.0,31,0.00,,---,0.00,VWS V13.00,2013-08-06 22:21:00,
2013-08-06 15:26:00,90.3,58.2,29.81,ESE,111,0.0,5.0,34,0.00,,---,0.00,VWS V13.00,2013-08-06 22:26:00,
2013-08-06 15:31:00,90.4,56.6,29.81,ESE,118,0.0,1.0,32,0.00,,---,0.00,VWS V13.00,2013-08-06 22:31:00,
2013-08-06 15:36:00,90.6,55.0,29.80,ESE,118,0.0,3.0,30,0.00,,---,0.00,VWS V13.00,2013-08-06 22:36:00,
2013-08-06 15:41:00,90.8,59.4,29.80,SE,134,0.0,5.0,35,0.00,,---,0.00,VWS V13.00,2013-08-06 22:41:00,
2013-08-06 15:46:00,91.2,61.3,29.80,SSE,164,3.0,7.0,37,0.00,,---,0.00,VWS V13.00,2013-08-06 22:46:00,
2013-08-06 15:51:00,91.3,57.3,29.80,ESE,123,6.0,10.0,32,0.00,,---,0.00,VWS V13.00,2013-08-06 22:51:00,
2013-08-06 15:56:00,91.4,53.8,29.80,South,180,4.0,10.0,28,0.00,,---,0.00,VWS V13.00,2013-08-06 22:56:00,
2013-08-06 16:01:00,91.0,54.4,29.80,East,86,0.0,4.0,29,0.00,,---,0.00,VWS V13.00,2013-08-06 23:01:00,
2013-08-06 16:06:00,90.6,57.6,29.80,East,99,0.0,4.0,33,0.00,,---,0.00,VWS V13.00,2013-08-06 23:06:00,
2013-08-06 16:11:00,90.7,55.0,29.80,North,350,4.0,6.0,30,0.00,,---,0.00,VWS V13.00,2013-08-06 23:11:00,
2013-08-06 16:16:00,90.6,55.8,29.80,ENE,69,1.0,6.0,31,0.00,,---,0.00,VWS V13.00,2013-08-06 23:16:00,
2013-08-06 16:21:00,90.0,54.4,29.80,ESE,114,0.0,6.0,30,0.00,,---,0.00,VWS V13.00,2013-08-06 23:21:00,
2013-08-06 16:26:00,89.8,54.3,29.80,ESE,114,0.0,6.0,30,0.00,,---,0.00,VWS V13.00,2013-08-06 23:26:00,
2013-08-06 16:31:00,89.8,56.0,29.79,ESE,114,0.0,1.0,32,0.00,,---,0.00,VWS V13.00,2013-08-06 23:31:00,
2013-08-06 16:36:00,90.0,54.4,29.79,SE,135,3.0,5.0,30,0.00,,---,0.00,VWS V13.00,2013-08-06 23:36:00,
2013-08-06 16:41:00,90.3,55.6,29.79,SE,145,4.0,5.0,31,0.00,,---,0.00,VWS V13.00,2013-08-06 23:41:00,
2013-08-06 16:46:00,90.5,55.8,29.79,ESE,112,1.0,6.0,31,0.00,,---,0.00,VWS V13.00,2013-08-06 23:46:00,
2013-08-06 16:51:00,90.3,55.6,29.79,East,94,3.0,6.0,31,0.00,,---,0.00,VWS V13.00,2013-08-06 23:51:00,
2013-08-06 16:56:00,89.3,52.9,29.79,ESE,111,2.0,6.0,29,0.00,,---,0.00,VWS V13.00,2013-08-06 23:56:00,
2013-08-06 17:01:00,88.4,54.0,29.79,ENE,69,0.0,2.0,31,0.00,,---,0.00,VWS V13.00,2013-08-07 00:01:00,
2013-08-06 17:06:00,87.9,53.5,29.79,ENE,71,1.0,2.0,31,0.00,,---,0.00,VWS V13.00,2013-08-07 00:06:00,
2013-08-06 17:11:00,87.8,53.4,29.79,ENE,75,0.0,3.0,31,0.00,,---,0.00,VWS V13.00,2013-08-07 00:11:00,
2013-08-06 17:16:00,87.8,54.3,29.79,East,83,1.0,3.0,32,0.00,,---,0.00,VWS V13.00,2013-08-07 00:16:00,
2013-08-06 17:21:00,87.9,54.4,29.79,East,84,0.0,3.0,32,0.00,,---,0.00,VWS V13.00,2013-08-07 00:21:00,
2013-08-06 17:26:00,88.0,55.3,29.78,East,84,0.0,3.0,33,0.00,,---,0.00,VWS V13.00,2013-08-07 00:26:00,
2013-08-06 17:31:00,88.1,53.7,29.78,East,83,0.0,1.0,31,0.00,,---,0.00,VWS V13.00,2013-08-07 00:31:00,
2013-08-06 17:36:00,88.3,58.0,29.78,East,84,0.0,1.0,36,0.00,,---,0.00,VWS V13.00,2013-08-07 00:36:00,
2013-08-06 17:41:00,88.4,54.8,29.78,NE,37,0.0,4.0,32,0.00,,---,0.00,VWS V13.00,2013-08-07 00:41:00,
2013-08-06 17:46:00,88.6,52.3,29.78,NE,53,0.0,4.0,29,0.00,,---,0.00,VWS V13.00,2013-08-07 00:46:00,
2013-08-06 17:51:00,88.8,56.8,29.78,NE,55,0.0,4.0,34,0.00,,---,0.00,VWS V13.00,2013-08-07 00:51:00,
2013-08-06 17:56:00,88.9,55.3,29.77,NE,55,1.0,4.0,32,0.00,,---,0.00,VWS V13.00,2013-08-07 00:56:00,
2013-08-06 18:01:00,89.1,57.1,29.77,NE,55,0.0,1.0,34,0.00,,---,0.00,VWS V13.00,2013-08-07 01:01:00,
2013-08-06 18:06:00,89.2,55.5,29.77,NE,55,0.0,1.0,32,0.00,,---,0.00,VWS V13.00,2013-08-07 01:06:00,
2013-08-06 18:11:00,89.1,53.7,29.77,NE,55,0.0,1.0,30,0.00,,---,0.00,VWS V13.00,2013-08-07 01:11:00,
2013-08-06 18:16:00,89.1,54.6,29.77,ESE,116,2.0,3.0,31,0.00,,---,0.00,VWS V13.00,2013-08-07 01:16:00,
2013-08-06 18:21:00,89.0,53.6,29.77,SE,137,0.0,6.0,30,0.00,,---,0.00,VWS V13.00,2013-08-07 01:21:00,
2013-08-06 18:26:00,88.9,53.5,29.77,ESE,107,0.0,6.0,30,0.00,,---,0.00,VWS V13.00,2013-08-07 01:26:00,
2013-08-06 18:31:00,88.7,53.3,29.76,ESE,108,0.0,1.0,30,0.00,,---,0.00,VWS V13.00,2013-08-07 01:31:00,
2013-08-06 18:36:00,88.5,53.1,29.76,East,91,0.0,4.0,30,0.00,,---,0.00,VWS V13.00,2013-08-07 01:36:00,
2013-08-06 18:41:00,88.3,53.0,29.76,East,91,0.0,4.0,30,0.00,,---,0.00,VWS V13.00,2013-08-07 01:41:00,
2013-08-06 18:46:00,88.0,52.7,29.76,ENE,74,0.0,4.0,30,0.00,,---,0.00,VWS V13.00,2013-08-07 01:46:00,
2013-08-06 18:51:00,87.8,53.4,29.76,ENE,74,0.0,4.0,31,0.00,,---,0.00,VWS V13.00,2013-08-07 01:51:00,
2013-08-06 18:56:00,87.7,54.2,29.76,ENE,74,0.0,4.0,32,0.00,,---,0.00,VWS V13.00,2013-08-07 01:56:00,
2013-08-06 19:01:00,87.4,53.1,29.76,ENE,74,0.0,0.0,31,0.00,,---,0.00,VWS V13.00,2013-08-07 02:01:00,
2013-08-06 19:06:00,87.4,54.0,29.75,ENE,74,0.0,1.0,32,0.00,,---,0.00,VWS V13.00,2013-08-07 02:06:00,
2013-08-06 19:11:00,87.1,52.8,29.75,ENE,74,0.0,1.0,31,0.00,,---,0.00,VWS V13.00,2013-08-07 02:11:00,
2013-08-06 19:16:00,87.1,53.7,29.75,ENE,67,0.0,2.0,32,0.00,,---,0.00,VWS V13.00,2013-08-07 02:16:00,
2013-08-06 19:21:00,86.9,54.4,29.75,ENE,67,0.0,2.0,33,0.00,,---,0.00,VWS V13.00,2013-08-07 02:21:00,
2013-08-06 19:26:00,86.7,54.2,29.75,ENE,67,0.0,2.0,33,0.00,,---,0.00,VWS V13.00,2013-08-07 02:26:00,
2013-08-06 19:31:00,86.6,54.1,29.75,ENE,67,0.0,0.0,33,0.00,,---,0.00,VWS V13.00,2013-08-07 02:31:00,
2013-08-06 19:36:00,86.5,53.2,29.75,ENE,67,0.0,0.0,32,0.00,,---,0.00,VWS V13.00,2013-08-07 02:36:00,
2013-08-06 19:41:00,86.4,55.5,29.76,ENE,67,0.0,0.0,35,0.00,,---,0.00,VWS V13.00,2013-08-07 02:41:00,
2013-08-06 19:46:00,86.2,54.6,29.75,ENE,67,0.0,0.0,34,0.00,,---,0.00,VWS V13.00,2013-08-07 02:46:00,
2013-08-06 19:51:00,85.9,54.3,29.75,ENE,67,0.0,0.0,34,0.00,,---,0.00,VWS V13.00,2013-08-07 02:51:00,
2013-08-06 19:56:00,85.4,55.4,29.75,ENE,67,0.0,0.0,36,0.00,,---,0.00,VWS V13.00,2013-08-07 02:56:00,
2013-08-06 20:01:00,84.7,56.3,29.74,ENE,67,0.0,0.0,38,0.00,,---,0.00,VWS V13.00,2013-08-07 03:01:00,
2013-08-06 20:06:00,83.9,55.6,29.75,ENE,67,0.0,0.0,38,0.00,,---,0.00,VWS V13.00,2013-08-07 03:06:00,
2013-08-06 20:11:00,83.2,55.0,29.75,ENE,67,0.0,0.0,38,0.00,,---,0.00,VWS V13.00,2013-08-07 03:11:00,
2013-08-06 20:16:00,82.5,54.4,29.75,ENE,67,0.0,0.0,38,0.00,,---,0.00,VWS V13.00,2013-08-07 03:16:00,
2013-08-06 20:21:00,82.1,54.7,29.75,ENE,67,0.0,0.0,39,0.00,,---,0.00,VWS V13.00,2013-08-07 03:21:00,
2013-08-06 20:26:00,81.7,53.7,29.75,ENE,67,0.0,0.0,38,0.00,,---,0.00,VWS V13.00,2013-08-07 03:26:00,
2013-08-06 20:31:00,81.4,53.4,29.75,ENE,67,0.0,0.0,38,0.00,,---,0.00,VWS V13.00,2013-08-07 03:31:00,
2013-08-06 20:36:00,81.0,54.4,29.76,ENE,67,0.0,1.0,40,0.00,,---,0.00,VWS V13.00,2013-08-07 03:36:00,
2013-08-06 20:41:00,80.5,55.3,29.75,ENE,67,0.0,1.0,42,0.00,,---,0.00,VWS V13.00,2013-08-07 03:41:00,
2013-08-06 20:46:00,80.1,55.6,29.76,ENE,67,1.0,1.0,43,0.00,,---,0.00,VWS V13.00,2013-08-07 03:46:00,
2013-08-06 20:51:00,79.6,55.8,29.76,ENE,67,1.0,3.0,44,0.00,,---,0.00,VWS V13.00,2013-08-07 03:51:00,
2013-08-06 20:56:00,79.0,55.2,29.76,ENE,67,0.0,3.0,44,0.00,,---,0.00,VWS V13.00,2013-08-07 03:56:00,
2013-08-06 21:01:00,78.5,54.8,29.76,ENE,67,0.0,1.0,44,0.00,,---,0.00,VWS V13.00,2013-08-07 04:01:00,
2013-08-06 21:06:00,77.7,55.3,29.76,ENE,61,1.0,3.0,46,0.00,,---,0.00,VWS V13.00,2013-08-07 04:06:00,
2013-08-06 21:11:00,77.1,55.3,29.76,ENE,61,0.0,3.0,47,0.00,,---,0.00,VWS V13.00,2013-08-07 04:11:00,
2013-08-06 21:16:00,76.5,55.4,29.76,ENE,62,0.0,3.0,48,0.00,,---,0.00,VWS V13.00,2013-08-07 04:16:00,
2013-08-06 21:21:00,76.0,55.5,29.76,ENE,62,0.0,3.0,49,0.00,,---,0.00,VWS V13.00,2013-08-07 04:21:00,
2013-08-06 21:26:00,75.4,54.9,29.76,NE,34,1.0,3.0,49,0.00,,---,0.00,VWS V13.00,2013-08-07 04:26:00,
2013-08-06 21:31:00,74.8,54.9,29.76,NE,34,0.0,3.0,50,0.00,,---,0.00,VWS V13.00,2013-08-07 04:31:00,
2013-08-06 21:36:00,74.2,54.9,29.76,NNW,345,3.0,3.0,51,0.00,,---,0.00,VWS V13.00,2013-08-07 04:36:00,
2013-08-06 21:41:00,73.7,54.5,29.76,NNW,346,2.0,3.0,51,0.00,,---,0.00,VWS V13.00,2013-08-07 04:41:00,
2013-08-06 21:46:00,73.0,53.8,29.77,NNW,345,1.0,3.0,51,0.00,,---,0.00,VWS V13.00,2013-08-07 04:46:00,
2013-08-06 21:51:00,72.4,54.3,29.77,NNW,346,2.0,3.0,53,0.00,,---,0.00,VWS V13.00,2013-08-07 04:51:00,
2013-08-06 21:56:00,71.9,54.4,29.77,NNW,346,2.0,3.0,54,0.00,,---,0.00,VWS V13.00,2013-08-07 04:56:00,
2013-08-06 22:01:00,71.4,53.9,29.76,NNW,344,3.0,3.0,54,0.00,,---,0.00,VWS V13.00,2013-08-07 05:01:00,
2013-08-06 22:06:00,70.9,54.0,29.77,NNW,344,3.0,3.0,55,0.00,,---,0.00,VWS V13.00,2013-08-07 05:06:00,
2013-08-06 22:11:00,70.3,53.4,29.77,NNW,344,2.0,3.0,55,0.00,,---,0.00,VWS V13.00,2013-08-07 05:11:00,
2013-08-06 22:16:00,69.8,52.4,29.77,NNW,344,1.0,3.0,54,0.00,,---,0.00,VWS V13.00,2013-08-07 05:16:00,
2013-08-06 22:21:00,69.5,52.6,29.77,NNW,344,3.0,3.0,55,0.00,,---,0.00,VWS V13.00,2013-08-07 05:21:00,
2013-08-06 22:26:00,69.2,52.8,29.77,NNW,344,3.0,3.0,56,0.00,,---,0.00,VWS V13.00,2013-08-07 05:26:00,
2013-08-06 22:31:00,68.9,53.1,29.77,NNW,344,3.0,3.0,57,0.00,,---,0.00,VWS V13.00,2013-08-07 05:31:00,
2013-08-06 22:36:00,68.6,52.8,29.77,NNW,344,2.0,3.0,57,0.00,,---,0.00,VWS V13.00,2013-08-07 05:36:00,
2013-08-06 22:41:00,68.4,53.1,29.77,NNW,339,2.0,3.0,58,0.00,,---,0.00,VWS V13.00,2013-08-07 05:41:00,
2013-08-06 22:46:00,68.1,52.8,29.77,NNW,339,2.0,4.0,58,0.00,,---,0.00,VWS V13.00,2013-08-07 05:46:00,
2013-08-06 22:51:00,67.8,52.5,29.77,NNW,339,2.0,4.0,58,0.00,,---,0.00,VWS V13.00,2013-08-07 05:51:00,
2013-08-06 22:56:00,67.5,52.2,29.77,NNW,339,2.0,4.0,58,0.00,,---,0.00,VWS V13.00,2013-08-07 05:56:00,
2013-08-06 23:01:00,67.3,52.5,29.76,NNW,339,0.0,3.0,59,0.00,,---,0.00,VWS V13.00,2013-08-07 06:01:00,
2013-08-06 23:06:00,67.1,52.3,29.76,NNW,334,2.0,3.0,59,0.00,,---,0.00,VWS V13.00,2013-08-07 06:06:00,
2013-08-06 23:11:00,66.8,52.0,29.76,NNW,334,1.0,3.0,59,0.00,,---,0.00,VWS V13.00,2013-08-07 06:11:00,
2013-08-06 23:16:00,66.6,51.8,29.77,NNW,334,1.0,3.0,59,0.00,,---,0.00,VWS V13.00,2013-08-07 06:16:00,
2013-08-06 23:21:00,66.4,51.7,29.77,NNW,334,0.0,3.0,59,0.00,,---,0.00,VWS V13.00,2013-08-07 06:21:00,
2013-08-06 23:26:00,66.3,52.0,29.77,NNW,334,2.0,3.0,60,0.00,,---,0.00,VWS V13.00,2013-08-07 06:26:00,
2013-08-06 23:31:00,66.1,51.8,29.77,NNW,334,0.0,1.0,60,0.00,,---,0.00,VWS V13.00,2013-08-07 06:31:00,
2013-08-06 23:36:00,66.0,52.2,29.77,NNW,334,0.0,2.0,61,0.00,,---,0.00,VWS V13.00,2013-08-07 06:36:00,
2013-08-06 23:41:00,65.8,52.4,29.77,NNW,334,0.0,3.0,62,0.00,,---,0.00,VWS V13.00,2013-08-07 06:41:00,
2013-08-06 23:46:00,65.6,52.2,29.77,NNW,334,2.0,3.0,62,0.00,,---,0.00,VWS V13.00,2013-08-07 06:46:00,
2013-08-06 23:51:00,65.4,52.5,29.77,NNW,334,0.0,3.0,63,0.00,,---,0.00,VWS V13.00,2013-08-07 06:51:00,
2013-08-06 23:56:00,65.3,52.4,29.78,NNW,334,0.0,3.0,63,0.00,,---,0.00,VWS V13.00,2013-08-07 06:56:00,